Volver al catálogo

CZ-6A DEB

ActivoPO
NORAD 61382·DEBRIS·🇨🇳 China

Lanzado Aug 6, 2024 desde Taiyuan Satellite Launch Center

Loading…

Próximos Pases (próximas 24 horas)

TLE

ActualizadoSource: Space-Track

Época: Sep 14, 2026, 10:03 UTC

1 61382U 24140WX  26257.41907171  .00001640  00000-0  39263-3 0  9990
2 61382  88.9431 255.2346 0083533   0.2175 359.9053 14.50991396107019

Sigue CZ-6A DEB en tiempo real con AllMySat

Download on the App Store